Location: ??
(34.7252°N, 135.5457°E)
Time: 09:38:57
(UTC+00:00)

deb Chang Zheng 4 - Pass Details

Date: 24 September 2020
Orbit: 602 x 626 km, 98.6° (Epoch: 24 October)

Event Time Altitude Azimuth Distance (km) Brightness Sun altitude
Rises 19:07:16 0° 18° (NNE) 2,877 7.4 -21.3°
Reaches altitude 10° 19:09:30 10° 23° (NNE) 1,965 6.6 -20.9°
Maximum altitude 19:13:41 54° 101° (E) 734 4.2 -20.0°
Drops below altitude 10° 19:17:48 10° 179° (S) 1,941 6.0 -19.2°
Sets 19:20:00 0° 184° (S) 2,838 6.8 -18.8°
